IU3UJX-13 Weather Reports


time (UTC)temp
C
wind
direction
speed
KPH
gust
KPH
rain 1hr
cm
rain 24hr
cm
rain mn
cm
humidity
%
barometer
mb
20260506174503 15 76 9.7 0.0 0.00 0.00 0.00 95 101.2
20260506173502 15 74 11.3 0.0 0.00 0.00 0.00 95 101.2
20260506172502 15 72 11.3 0.0 0.00 0.00 0.00 95 101.2
20260506172249 15 72 11.3 0.0 0.00 0.00 0.00
20260506171248 16 70 11.3 0.0 0.00 0.00 0.00
20260506170248 17 78 8.0 0.0 0.00 0.00 0.00
20260506165654 -8 70 8.0 0.0 0.00 0.00 0.00
20260506164653 -8 70 8.0 0.0 0.00 0.00 0.00
20260506163653 -8 63 8.0 0.0 0.00 0.00 0.00
20260506163250 -8 10 101.4 0.0 0.00 0.00 0.00
20260506154526 -8 12 95.0 0.0 0.00 0.00 0.00
20260506153526 -8 14 107.8 0.0 0.00 0.00 0.00
20260506152525 -8 17 117.5 0.0 0.00 0.00 0.00
20260506151524 -8 17 117.5 0.0 0.00 0.00 0.00
20260506150524 -8 18 123.9 0.0 0.00 0.00 0.00
20260506145523 -8 18 125.5 0.0 0.00 0.00 0.00
20260506145028 -8 18 125.5 0.0 0.00 0.00 0.00 100
20260506144028 -8 18 125.5 0.0 0.00 0.00 0.00 100
20260506143027 -8 18 125.5 0.0 0.00 0.00 0.00 100
20260506142025 -7 17 123.9 0.0 0.00 0.00 0.00 100
20260506141024 -7 17 127.1 0.0 0.00 0.00 0.00 100
20260506140023 -7 17 127.1 0.0 0.00 0.00 0.00 100
20260506135018 -7 17 135.2 0.0 0.00 0.00 0.00 100
20260506133907 -7 18 144.8 0.0 0.00 0.00 0.00 100
20260506133220 -7 18 144.8 0.0 0.00 0.00 0.00 100